TimeEST,TemperatureF,Dew PointF,Humidity,Sea Level PressureIn,VisibilityMPH,Wind Direction,Wind SpeedMPH,Gust SpeedMPH,PrecipitationIn,Events,Conditions,WindDirDegrees,DateUTC
12:53 AM,35.1,30.9,85,30.32,10.0,Calm,Calm,-,N/A,,Clear,0,2013-02-10 05:53:00
1:53 AM,34.0,30.9,89,30.33,10.0,Calm,Calm,-,N/A,,Clear,0,2013-02-10 06:53:00
2:53 AM,33.1,30.9,92,30.33,8.0,Calm,Calm,-,N/A,,Clear,0,2013-02-10 07:53:00
3:53 AM,33.1,32.0,96,30.32,8.0,SW,3.5,-,N/A,,Clear,220,2013-02-10 08:53:00
4:53 AM,36.0,33.1,89,30.34,10.0,WNW,4.6,-,N/A,,Clear,290,2013-02-10 09:53:00
5:53 AM,35.1,33.1,92,30.36,8.0,Calm,Calm,-,N/A,,Clear,0,2013-02-10 10:53:00
6:53 AM,36.0,34.0,93,30.38,8.0,Calm,Calm,-,N/A,,Clear,0,2013-02-10 11:53:00
7:53 AM,37.4,35.6,93,30.38,8.0,Calm,Calm,-,N/A,,Clear,0,2013-02-10 12:53:00
8:53 AM,45.0,37.9,76,30.37,10.0,Calm,Calm,-,N/A,,Clear,0,2013-02-10 13:53:00
9:53 AM,51.1,37.9,61,30.37,10.0,Calm,Calm,-,N/A,,Clear,0,2013-02-10 14:53:00
10:53 AM,57.9,37.0,46,30.40,10.0,East,9.2,-,N/A,,Partly Cloudy,100,2013-02-10 15:53:00
11:53 AM,61.0,39.9,46,30.36,10.0,SE,10.4,16.1,N/A,,Scattered Clouds,130,2013-02-10 16:53:00
12:53 PM,64.0,43.0,46,30.32,10.0,ESE,8.1,-,N/A,,Scattered Clouds,120,2013-02-10 17:53:00
1:53 PM,66.0,45.0,47,30.25,10.0,SSE,11.5,21.9,N/A,,Clear,150,2013-02-10 18:53:00
2:53 PM,68.0,45.0,43,30.23,10.0,SSE,12.7,24.2,N/A,,Scattered Clouds,150,2013-02-10 19:53:00
3:53 PM,68.0,46.9,47,30.20,10.0,SSE,16.1,20.7,N/A,,Partly Cloudy,150,2013-02-10 20:53:00
4:53 PM,66.9,46.9,49,30.18,10.0,SSE,13.8,21.9,N/A,,Overcast,160,2013-02-10 21:53:00
5:53 PM,64.9,48.0,54,30.17,10.0,SSE,12.7,21.9,N/A,,Mostly Cloudy,150,2013-02-10 22:53:00
6:53 PM,64.0,48.0,56,30.13,10.0,SE,10.4,17.3,N/A,,Clear,140,2013-02-10 23:53:00
7:53 PM,63.0,48.9,60,30.16,10.0,SSE,13.8,18.4,N/A,,Clear,160,2013-02-11 00:53:00
8:53 PM,62.1,51.1,67,30.16,10.0,SSE,10.4,-,N/A,,Mostly Cloudy,150,2013-02-11 01:53:00
9:53 PM,60.1,53.1,78,30.19,8.0,SSE,3.5,-,0.01,Rain,Light Rain,150,2013-02-11 02:53:00
10:53 PM,57.0,55.0,93,30.20,8.0,NE,6.9,-,0.06,Rain,Light Rain,50,2013-02-11 03:53:00
11:21 PM,57.2,55.4,94,30.21,4.0,NNE,4.6,-,0.05,Rain,Light Rain,20,2013-02-11 04:21:00
11:31 PM,57.2,55.4,94,30.21,4.0,Calm,Calm,-,0.06,Rain,Rain,0,2013-02-11 04:31:00
11:53 PM,55.9,55.0,97,30.21,4.0,Calm,Calm,-,0.12,Rain,Rain,0,2013-02-11 04:53:00